Weather in Kashgar

China     39°28′04″N   75°59′08″E
temp.,
°C
wind,
m/s
gust,
m/s
humid.,
%
clouds,
%
prec.,
mm/h
press.,
hPa
HPBL,
m
17 may, mon
mon1723:00+15ne124984 0.2 101660
02:00+14nnw2249100 0.3 101616
05:00+14wnw22515 0.0 101511
08:00+13wsw225272 0.0 101513
11:00+18sw223899 0.0 1015473
14:00+22sse122479 0.0 10131577
17:00+25se32155 0.0 10102194
20:00+25ese32145 0.0 10092361
18 may, tue
tue1823:00+21nnw582796 0.0 1013169
02:00+20nw2329100 0.0 101234
05:00+17e22368 0.0 101215
08:00+16nne22383 0.0 101212
11:00+21ne55260 0.0 1013618
14:00+25ene54190 0.0 10111947
17:00+26ene33150 0.0 10082780
20:00+27ene2314100 0.0 10063059
19 may, wed
wed1923:00+22nne332099 0.0 100826
02:00+20n4731100 0.0 1010120
05:00+20n4632100 0.0 100998
08:00+18wnw2235100 0.0 100815
11:00+23wnw1125100 0.0 1008552
14:00+25ese331898 0.0 10062096
17:00+27e33170 0.0 10032491
20:00+26n231854 0.0 10032593
20 may, thu
thu2023:00+21wnw11143080 0.0 1006383
02:00+20w5833100 0.0 1006166
05:00+19w453577 0.0 100558
08:00+19wnw3332100 0.0 100516
11:00+25nnw67165 0.0 1005983
14:00+28nnw45125 0.0 10032906
17:00+29ssw03104 0.0 10003678
20:00+29sse6411100 0.0 9991678
21 may, fri
fri2123:00+25nw7101959 0.0 1004356
02:00+23nw101523100 0.0 1005430
05:00+22wnw5924100 0.0 1004234
08:00+20w2328100 0.0 100574
11:00+24n5621100 0.0 1005768
14:00+26s1218100 0.0 10051601
17:00+27nw2216100 0.0 10043134
20:00+26nnw6521100 0.0 10041653